Wetbulb
72.15 71.76 71.70 72.01 71.68 71.95 71.25 71.36 69.34 67.60 67.49 69.63 72.57 72.53 72.68 72.52 72.27 73.10 72.92 77.06 76.64 75.77 76.50 76.42 76.55 76.44 76.06 76.38 76.05 75.18 74.72 74.32 74.15 74.52 74.79 73.94 74.75 74.55 74.19 73.91 73.81 73.67 73.09
71.24 70.90 69.67 69.37 70.36 72.39 71.00 70.72 71.33 70.54 70.09 70.27 70.96 72.50 72.95 72.45 72.09 73.40 73.71 73.99 76.79 75.93 76.64 76.85 77.24 77.08 76.42 76.28 76.58 76.15 75.41 75.07 75.57 75.64 75.26 75.29 75.28 75.13 74.63 74.15 73.84 74.35 74.36
71.58 70.86 69.38 69.83 70.79 70.19 69.04 68.61 68.72 71.34 70.74 71.33 71.30 72.12 72.92 72.78 73.47 73.28 73.19 72.84 74.33 76.48 76.50 76.38 76.92 77.16 77.13 76.69 76.71 76.97 76.54 76.11 75.81 75.81 75.61 75.33 74.80 75.13 75.38 75.11 74.14 74.81 74.73
71.61 71.01 69.53 71.22 71.22 70.24 68.25 67.69 67.08 67.51 69.73 70.74 70.29 71.01 71.76 71.30 71.53 71.72 73.06 73.37 72.91 73.17 75.37 76.09 75.57 75.88 77.11 77.10 77.28 77.17 76.56 76.11 75.88 75.35 75.33 75.43 74.87 74.13 74.20 74.08 74.08 74.50 74.62
71.34 70.57 69.41 72.13 72.69 70.40 69.65 69.88 68.52 67.49 68.21 70.04 70.88 70.70 70.98 71.37 71.98 73.09 72.03 72.73 73.46 73.68 73.15 75.11 75.81 75.65 76.51 76.28 76.81 77.05 76.28 75.56 75.11 75.18 75.13 74.36 74.01 73.78 73.60 73.06 73.41 74.04 74.08
71.57 70.40 71.65 72.02 71.92 71.47 70.60 70.04 68.91 69.29 70.23 70.11 71.37 70.82 69.96 70.66 71.19 71.28 71.04 72.25 72.23 73.37 73.24 73.24 73.19 73.30 75.12 75.58 75.69 76.75 76.70 75.21 74.71 74.71 74.27 73.90 73.88 74.16 73.88 73.49 73.35 73.10 73.22
71.74 71.12 71.47 71.76 71.83 70.61 71.24 70.78 69.96 68.79 68.79 69.98 67.78 67.51 68.72 70.05 70.65 70.58 70.59 70.67 70.71 71.11 72.51 72.35 71.39 71.89 71.88 73.68 73.58 73.93 75.30 75.56 74.69 74.46 73.96 73.89 73.89 73.99 73.51 73.21 73.32 73.17 72.57
71.50 71.96 70.96 71.42 71.23 70.42 70.04 69.79 69.57 68.79 69.13 69.39 66.68 65.51 62.79 65.01 67.91 70.09 70.05 70.71 70.04 70.75 71.16 71.93 71.04 71.51 70.17 69.74 71.48 72.37 73.15 74.46 74.95 74.68 74.09 73.73 73.87 73.93 74.09 73.83 73.12 72.74 72.31
72.38 71.24 71.03 71.24 70.93 70.52 69.46 69.49 69.56 69.16 67.40 68.36 68.78 65.36 62.23 60.89 63.45 67.13 67.49 68.39 69.58 69.74 70.91 71.58 71.22 70.20 69.90 68.86 70.75 71.94 71.59 72.32 72.48 73.19 73.81 73.50 72.44 72.90 73.42 73.67 73.10 72.32 72.31
71.78 71.11 71.13 71.16 70.92 70.70 70.29 70.42 71.14 69.19 68.52 66.70 67.89 69.36 67.85 66.19 62.19 60.83 66.36 68.18 69.09 68.68 70.26 71.19 70.01 69.29 67.62 67.62 70.44 71.41 71.46 71.34 71.83 72.29 71.75 71.72 71.51 71.68 71.87 71.52 71.55 72.01 71.89
70.50 71.22 70.51 70.23 70.15 70.39 70.43 69.98 69.59 68.67 69.35 68.30 67.33 66.97 66.12 66.30 65.76 63.50 60.01 65.19 66.94 67.87 68.70 68.82 69.92 69.15 69.58 69.65 69.56 70.50 70.36 70.25 70.20 70.20 70.69 70.91 71.37 71.67 71.70 71.57 71.45 71.33 71.35
69.00 70.34 70.71 69.77 69.84 69.86 69.75 70.23 69.89 69.63 69.31 69.06 68.07 67.80 66.76 64.74 64.09 64.17 62.20 63.93 63.82 65.35 66.17 67.73 68.61 68.98 69.13 69.38 70.10 69.82 69.04 68.47 68.26 68.36 68.95 69.55 70.12 70.49 70.55 70.51 70.24 69.88 70.10
67.83 68.99 69.61 69.21 69.40 69.23 69.90 70.02 69.42 69.17 68.88 68.03 67.47 67.04 67.69 67.35 67.20 66.21 64.96 64.27 63.50 64.99 64.65 64.93 66.03 67.26 67.38 66.70 67.56 68.21 67.79 66.81 66.44 66.12 66.48 67.12 67.40 67.63 67.79 68.05 67.99 67.91 68.01
67.58 68.11 68.31 68.73 68.88 69.44 69.53 69.44 68.25 68.59 68.27 68.30 68.03 68.03 67.47 67.94 68.36 67.53 66.09 64.69 63.00 63.50 63.68 62.09 64.40 65.61 66.49 66.05 66.52 66.59 65.30 65.57 64.68 63.84 64.10 64.45 64.50 64.92 64.81 65.05 65.03 65.50 65.74
68.66 67.54 68.86 68.75 68.80 69.33 68.99 67.42 66.38 67.13 66.86 67.08 67.40 67.62 67.71 68.00 68.12 68.16 67.42 65.79 63.32 61.31 60.69 62.48 61.71 63.82 64.82 63.81 63.78 62.49 62.95 64.19 63.60 62.95 62.33 62.53 62.86 62.97 63.11 63.20 62.94 63.20 63.57
67.15 66.83 67.21 67.38 66.65 67.20 67.76 66.46 65.52 67.09 65.99 65.93 66.50 66.61 66.90 67.76 68.34 68.28 67.44 67.06 65.98 64.05 60.24 61.81 61.37 62.25 63.15 63.22 63.70 61.14 61.04 61.89 61.89 61.38 60.99 60.94 61.05 61.14 61.03 61.33 61.71 62.36 62.94
66.78 68.05 68.11 67.25 66.65 66.19 67.17 66.17 64.98 64.95 64.11 65.07 65.70 64.79 64.73 66.10 66.18 67.87 67.55 66.54 64.80 61.46 58.60 59.16 60.04 60.10 59.61 60.11 60.28 60.58 59.50 57.76 58.46 59.79 59.30 59.05 58.62 58.76 58.99 59.36 59.70 60.39 61.63
66.78 67.62 66.80 65.93 65.55 65.52 66.03 64.73 63.89 64.69 64.57 64.11 64.64 64.79 65.36 66.52 65.27 66.01 66.01 63.78 63.33 60.79 59.90 56.78 57.97 57.59 57.51 58.47 58.64 58.00 57.98 57.68 55.78 58.66 58.18 57.93 57.39 56.92 56.96 57.14 57.12 57.18 57.52
66.13 66.02 65.56 64.58 64.59 64.77 64.76 65.24 64.53 63.37 62.25 61.25 60.72 60.69 61.24 62.77 64.76 64.28 62.73 61.85 60.28 59.94 59.77 57.57 56.14 57.51 57.20 57.55 56.42 56.89 55.78 56.44 57.16 58.97 57.51 57.05 56.73 56.55 56.62 56.65 56.00 54.97 54.13
65.79 65.21 64.93 64.82 64.28 62.28 62.49 64.23 64.59 62.42 60.93 60.19 59.91 59.70 59.45 59.81 61.16 63.50 61.35 59.43 59.82 58.42 58.05 56.94 56.38 56.82 56.88 57.32 56.86 55.64 53.68 55.82 54.40 57.03 57.62 55.84 56.35 57.03 56.91 56.88 56.82 56.00 54.34
66.33 65.46 64.58 63.77 60.60 59.48 60.80 62.03 63.10 62.72 60.94 60.09 59.18 58.89 59.24 61.87 62.46 63.20 61.48 58.55 57.90 57.38 57.14 56.28 55.66 56.28 55.90 55.96 54.27 54.84 53.05 52.65 53.57 53.25 51.90 52.25 52.44 52.28 53.66 55.74 56.62 56.34 54.52
65.85 65.55 64.46 60.39 58.40 59.79 59.35 60.81 62.31 61.39 61.86 61.17 59.34 59.25 59.92 60.16 60.21 60.26 60.74 62.34 59.52 56.86 55.42 54.67 53.91 54.07 53.38 54.62 56.20 54.84 54.62 53.22 51.83 55.48 53.92 53.90 54.44 53.54 53.09 50.06 55.55 55.42 54.22
65.49 64.09 62.55 59.92 57.81 56.55 58.85 58.10 62.44 60.68 60.30 58.32 57.85 59.58 57.66 58.04 56.12 54.65 56.41 57.64 59.12 60.39 60.45 58.81 56.24 56.34 57.88 56.94 57.50 55.02 57.08 56.38 54.78 55.10 55.13 53.49 56.20 53.97 52.73 51.94 55.96 55.17 54.16
65.35 64.37 63.59 60.57 57.72 56.36 57.77 58.30 58.92 61.33 60.39 59.16 57.44 57.87 55.04 52.96 53.65 52.40 49.61 48.10 48.32 51.19 53.56 53.97 51.99 50.64 50.17 51.00 53.03 53.59 56.64 56.78 56.12 56.74 57.00 52.57 54.64 53.54 51.12 49.98 55.44 54.75 53.99
65.72 64.77 64.86 61.24 57.45 54.96 55.67 55.16 57.91 60.73 59.96 58.00 56.56 56.90 55.74 51.06 53.19 54.59 49.98 47.32 45.33 45.43 51.68 53.25 52.02 52.64 53.28 54.12 53.79 51.35 49.84 49.93 51.55 55.70 51.89 53.73 53.12 52.23 51.19 49.04 52.19 54.53 53.13
65.01 65.16 64.43 63.21 59.22 56.83 53.52 53.39 54.49 57.26 58.47 57.64 54.74 51.15 53.54 50.23 50.64 52.36 51.84 48.89 46.35 47.25 48.28 48.85 49.18 50.59 52.03 52.30 55.16 50.13 49.33 46.46 48.36 49.91 50.74 51.39 52.86 51.92 49.49 50.73 49.69 50.55 49.06
MSLP
1016.17 1016.02 1016.38 1016.69 1017.09 1017.26 1017.56 1017.61 1017.97 1018.17 1017.99 1017.99 1017.96 1017.71 1017.59 1017.49 1017.44 1017.47 1017.65 1017.75 1018.18 1018.58 1018.73 1018.85 1018.97 1019.05 1019.35 1019.52 1019.86 1020.14 1020.30 1020.44 1020.55 1020.67 1020.82 1020.94 1021.03 1021.19 1021.38 1021.46 1021.53 1021.67 1021.86
1016.02 1016.29 1016.62 1016.84 1016.96 1017.35 1017.78 1017.43 1017.53 1017.66 1017.42 1017.89 1017.84 1017.44 1017.17 1017.04 1017.03 1017.11 1017.20 1017.37 1017.55 1017.93 1018.23 1018.41 1018.57 1018.71 1018.77 1019.08 1019.42 1019.70 1019.87 1019.97 1020.05 1020.26 1020.48 1020.76 1020.88 1021.02 1021.19 1021.30 1021.34 1021.32 1021.45
1015.79 1016.30 1016.66 1016.85 1016.90 1017.30 1017.26 1017.43 1017.59 1017.74 1017.71 1017.52 1017.82 1017.12 1016.83 1016.67 1016.63 1016.73 1016.90 1017.03 1017.19 1017.49 1017.75 1017.97 1018.02 1018.35 1018.43 1018.49 1018.73 1019.03 1019.26 1019.36 1019.54 1019.72 1019.83 1020.13 1020.52 1020.67 1020.82 1020.99 1021.07 1021.05 1021.13
1015.93 1016.31 1016.85 1016.91 1016.85 1017.06 1017.12 1017.32 1017.49 1017.62 1017.68 1017.75 1017.48 1016.93 1016.85 1016.67 1016.85 1016.63 1016.59 1016.64 1016.93 1017.23 1017.43 1017.54 1017.61 1017.70 1017.89 1017.93 1018.13 1018.41 1018.81 1019.00 1019.08 1019.17 1019.34 1019.72 1020.09 1020.35 1020.42 1020.57 1020.67 1020.70 1020.69
1015.92 1016.06 1016.32 1016.20 1016.21 1016.52 1016.52 1016.77 1017.14 1017.28 1017.60 1017.33 1016.98 1016.82 1016.81 1016.73 1016.54 1016.15 1016.22 1016.32 1016.54 1016.79 1016.96 1016.98 1017.08 1017.28 1017.54 1017.93 1018.09 1018.26 1018.44 1018.73 1018.93 1018.97 1019.12 1019.59 1019.81 1019.88 1020.06 1020.16 1020.22 1020.33 1020.37
1015.61 1015.69 1015.66 1015.55 1015.61 1016.15 1016.30 1016.31 1016.65 1016.89 1017.14 1016.79 1016.67 1016.65 1016.81 1016.64 1016.34 1016.33 1016.16 1015.87 1016.03 1016.15 1016.34 1016.47 1016.87 1017.27 1017.63 1017.84 1018.14 1018.15 1018.26 1018.72 1018.98 1018.93 1019.17 1019.30 1019.43 1019.53 1019.72 1019.80 1019.91 1019.97 1020.14
1015.07 1015.20 1015.22 1015.23 1015.16 1015.72 1015.97 1016.11 1016.38 1016.69 1016.70 1016.62 1016.82 1016.75 1016.52 1016.16 1016.13 1016.09 1015.87 1015.68 1015.56 1015.63 1015.79 1016.27 1016.77 1016.95 1017.38 1017.96 1017.99 1018.41 1018.43 1018.54 1018.72 1018.68 1018.84 1019.01 1019.03 1019.13 1019.11 1019.29 1019.39 1019.51 1019.60
1014.73 1014.76 1014.89 1015.01 1015.26 1015.69 1015.99 1015.98 1016.02 1016.33 1016.39 1016.23 1016.65 1017.03 1016.96 1016.47 1015.92 1015.59 1015.54 1015.70 1015.96 1016.08 1016.05 1016.47 1016.97 1017.26 1017.27 1017.97 1017.93 1017.81 1018.28 1018.45 1018.63 1018.61 1018.61 1018.70 1018.68 1018.75 1018.73 1018.81 1018.92 1019.11 1019.17
1014.53 1014.31 1014.54 1014.76 1015.12 1015.41 1015.64 1015.70 1015.65 1015.98 1016.27 1016.17 1016.20 1016.63 1016.96 1016.91 1016.44 1015.95 1016.10 1016.17 1016.41 1016.55 1016.70 1016.65 1016.63 1017.86 1017.80 1018.09 1018.14 1017.83 1017.90 1018.27 1018.61 1018.52 1018.45 1018.54 1018.57 1018.38 1018.11 1018.25 1018.51 1018.63 1018.77
1014.51 1014.43 1014.59 1014.60 1015.09 1015.29 1015.39 1015.54 1015.59 1015.67 1015.93 1016.17 1016.05 1015.98 1016.11 1016.48 1016.71 1016.79 1016.76 1016.96 1017.21 1017.53 1017.24 1015.30 1017.43 1018.28 1017.89 1017.95 1017.75 1017.40 1017.85 1018.51 1018.41 1018.55 1018.81 1018.73 1018.66 1018.57 1018.34 1018.38 1018.50 1018.55 1018.53
1014.42 1014.51 1014.73 1014.82 1015.05 1015.27 1015.34 1015.43 1015.52 1015.57 1015.57 1015.72 1015.88 1015.92 1016.02 1016.11 1016.28 1016.81 1017.04 1017.38 1017.61 1017.91 1017.90 1017.90 1017.84 1018.55 1017.97 1017.80 1017.82 1017.99 1018.30 1018.49 1018.70 1018.93 1019.04 1018.94 1018.77 1018.72 1018.62 1018.61 1018.66 1018.66 1018.61
1014.84 1014.58 1014.55 1014.75 1014.77 1015.16 1015.23 1015.26 1015.30 1015.34 1015.34 1015.34 1015.40 1015.65 1015.76 1015.95 1016.02 1016.22 1016.78 1017.33 1017.73 1018.16 1017.86 1018.47 1018.48 1018.25 1018.29 1018.32 1018.35 1018.60 1018.89 1019.16 1019.18 1019.29 1019.39 1019.32 1019.17 1019.12 1019.06 1019.09 1019.12 1019.12 1018.96
1015.00 1014.73 1014.64 1014.84 1015.10 1015.11 1015.15 1015.31 1015.32 1015.33 1015.32 1015.43 1015.43 1015.30 1015.36 1015.58 1015.52 1015.78 1016.25 1016.98 1017.59 1018.25 1018.64 1018.80 1018.78 1018.62 1018.79 1018.96 1019.17 1019.39 1019.70 1019.88 1019.90 1019.74 1019.83 1019.73 1019.55 1019.61 1019.71 1019.72 1019.72 1019.65 1019.50
1015.26 1015.27 1015.05 1015.02 1015.14 1015.05 1015.13 1015.41 1015.55 1015.49 1015.59 1015.58 1015.47 1015.28 1015.25 1015.20 1015.10 1015.38 1015.86 1016.53 1017.61 1018.17 1018.86 1019.35 1019.32 1019.17 1019.11 1019.29 1019.61 1019.93 1020.15 1020.30 1020.34 1020.16 1020.16 1020.10 1020.12 1020.20 1020.22 1020.28 1020.18 1020.18 1019.96
1015.14 1015.07 1015.14 1015.26 1015.24 1015.29 1015.53 1015.90 1015.92 1015.92 1016.01 1015.91 1015.79 1015.55 1015.45 1015.41 1015.08 1015.16 1015.52 1016.04 1016.58 1017.93 1019.01 1019.60 1019.88 1019.73 1019.73 1020.04 1020.34 1020.48 1020.49 1020.43 1020.62 1020.70 1020.70 1020.64 1020.69 1020.74 1020.73 1020.65 1020.62 1020.49 1020.32
1015.23 1015.22 1015.35 1015.45 1015.42 1015.64 1016.03 1016.14 1016.12 1016.32 1016.33 1016.40 1016.20 1015.91 1015.83 1015.64 1015.43 1015.40 1015.50 1015.89 1016.34 1017.19 1018.81 1019.61 1020.16 1020.32 1020.34 1020.60 1020.78 1020.98 1021.04 1020.99 1021.02 1021.14 1021.11 1021.17 1021.27 1021.28 1021.28 1021.09 1020.92 1020.90 1020.66
1015.36 1015.38 1015.40 1015.64 1015.85 1015.96 1016.25 1016.41 1016.49 1016.70 1016.75 1016.73 1016.46 1016.33 1016.26 1015.93 1016.04 1015.96 1015.91 1016.06 1016.72 1017.49 1019.07 1020.17 1020.54 1020.91 1021.07 1021.07 1021.16 1021.26 1021.57 1021.59 1021.54 1021.54 1021.67 1021.76 1021.78 1021.70 1021.64 1021.44 1021.49 1021.47 1021.28
1015.44 1015.50 1015.58 1015.88 1015.98 1016.11 1016.52 1016.62 1016.89 1017.05 1017.15 1017.05 1016.89 1016.68 1016.62 1016.41 1016.47 1016.39 1016.49 1016.78 1017.21 1017.67 1018.62 1019.91 1020.81 1021.25 1021.50 1021.63 1021.67 1021.66 1021.91 1021.97 1022.02 1022.01 1022.05 1022.06 1022.11 1022.16 1022.10 1022.08 1022.11 1022.07 1022.03
1015.66 1015.92 1015.98 1016.23 1016.46 1016.48 1016.73 1016.91 1017.09 1017.41 1017.61 1017.70 1017.47 1017.24 1017.28 1017.02 1017.02 1017.09 1017.26 1017.46 1017.88 1018.36 1018.89 1019.64 1020.70 1021.35 1021.76 1021.84 1022.04 1021.98 1022.17 1022.26 1022.22 1022.24 1022.31 1022.39 1022.45 1022.50 1022.49 1022.51 1022.55 1022.57 1022.64
1015.79 1016.17 1016.20 1016.39 1016.64 1016.77 1016.98 1017.00 1017.32 1017.75 1017.98 1018.02 1017.85 1017.73 1017.76 1017.62 1017.59 1017.67 1017.99 1018.30 1018.52 1018.98 1019.47 1020.05 1020.73 1021.26 1021.59 1021.90 1021.94 1022.14 1022.33 1022.29 1022.32 1022.32 1022.33 1022.53 1022.60 1022.57 1022.62 1022.64 1022.70 1022.86 1023.01
1015.86 1016.08 1016.34 1016.62 1016.73 1016.92 1017.17 1017.28 1017.47 1017.86 1018.17 1018.40 1018.48 1018.38 1018.21 1018.10 1017.98 1017.91 1018.25 1018.85 1019.16 1019.53 1019.97 1020.49 1020.86 1021.21 1021.50 1021.85 1021.96 1021.99 1022.28 1022.42 1022.44 1022.53 1022.85 1022.97 1023.03 1023.12 1022.99 1022.77 1022.85 1023.04 1023.19
1015.88 1016.11 1016.43 1016.70 1017.10 1017.48 1017.54 1017.43 1017.52 1017.83 1018.05 1018.46 1018.93 1018.93 1018.87 1018.72 1018.61 1018.64 1018.74 1019.03 1019.33 1019.68 1020.11 1020.62 1020.98 1021.26 1021.40 1021.43 1021.53 1021.82 1021.98 1022.34 1022.49 1022.20 1022.70 1022.78 1022.83 1023.12 1022.92 1023.20 1023.10 1023.19 1023.44
1015.98 1016.33 1016.72 1016.86 1017.29 1017.79 1017.77 1017.62 1017.66 1017.81 1018.18 1018.49 1018.79 1019.13 1019.30 1019.39 1019.26 1019.25 1019.28 1019.41 1019.65 1019.87 1019.94 1020.11 1020.73 1021.05 1021.25 1021.20 1021.31 1021.63 1021.71 1021.72 1021.85 1021.85 1022.16 1022.46 1022.49 1022.82 1022.84 1023.11 1023.14 1023.24 1023.35
1015.93 1016.38 1016.77 1017.09 1017.47 1017.68 1017.85 1017.90 1017.99 1018.06 1018.32 1018.75 1018.99 1019.18 1019.50 1019.72 1019.68 1019.68 1019.89 1020.08 1020.16 1020.21 1020.20 1020.38 1020.63 1020.88 1021.01 1020.98 1020.95 1021.08 1021.17 1021.37 1021.49 1021.63 1021.76 1022.44 1022.31 1022.64 1022.72 1023.02 1023.06 1023.16 1023.25
1015.60 1016.04 1016.58 1017.03 1017.49 1017.87 1017.86 1018.13 1018.26 1018.49 1018.68 1019.05 1019.32 1019.54 1019.74 1019.95 1020.03 1020.03 1020.19 1020.58 1020.68 1020.63 1020.49 1020.39 1020.50 1020.66 1020.77 1020.73 1020.74 1020.85 1021.51 1021.53 1021.77 1021.87 1022.03 1022.22 1022.16 1022.47 1022.75 1023.12 1023.15 1023.12 1023.17
1015.79 1015.88 1016.43 1016.88 1017.19 1017.73 1018.00 1018.19 1018.37 1018.63 1019.02 1019.40 1019.66 1019.78 1019.98 1020.07 1020.12 1020.09 1020.46 1020.76 1021.03 1020.81 1020.66 1020.70 1020.84 1020.98 1021.04 1021.03 1020.91 1021.09 1021.49 1021.78 1021.93 1022.08 1021.70 1021.90 1022.08 1022.36 1022.91 1022.75 1022.82 1022.99 1023.29
Wind_Speed
3 4 2 2 3 2 2 2 2 3 3 5 5 6 9 7 6 4 4 17 15 14 14 16 16 16 16 15 14 13 13 13 13 12 12 11 9 10 10 10 9 10 8
4 3 3 2 2 3 3 2 2 5 4 4 7 10 8 7 6 4 4 7 18 16 17 17 16 17 17 16 15 15 15 15 14 14 12 11 10 10 10 11 11 10 10
4 4 2 2 3 4 3 2 2 2 4 6 11 5 5 6 4 4 5 5 8 15 17 18 18 17 16 17 18 17 17 16 15 14 14 14 11 10 11 11 12 11 10
5 4 4 4 5 4 3 4 3 3 4 6 5 4 3 4 6 6 5 5 4 6 12 17 16 17 17 18 18 18 17 17 16 15 14 12 12 12 11 12 13 12 12
5 5 4 5 5 4 5 3 3 3 4 6 5 4 4 5 5 5 5 6 7 8 7 14 16 15 16 17 16 16 17 17 14 13 13 11 11 10 9 10 8 11 12
4 5 4 4 4 3 3 2 4 4 6 4 4 4 4 5 6 5 5 5 5 7 8 8 5 5 10 16 15 15 15 15 13 14 11 11 11 10 10 9 9 9 9
6 5 3 4 3 3 5 5 4 5 4 3 1 3 4 5 5 5 4 5 6 5 7 6 4 4 0 12 5 7 11 15 15 14 13 11 12 11 12 10 9 10 10
4 4 2 3 2 2 3 3 3 1 2 3 3 1 2 5 3 5 4 3 1 4 2 5 5 3 5 3 7 4 10 16 15 14 13 11 11 11 13 11 12 11 9
3 1 1 3 2 2 0 2 1 4 2 2 5 4 1 3 2 3 3 2 5 5 7 3 8 3 4 1 5 10 5 9 9 10 8 6 8 9 12 9 7 7 9
4 5 5 6 5 2 3 2 1 3 3 4 1 3 3 3 1 4 3 5 7 8 8 4 4 1 3 4 7 13 9 8 9 8 6 8 8 8 11 7 6 5 6
6 6 6 5 4 3 3 3 2 1 2 2 3 1 1 2 3 3 1 2 6 5 5 4 6 3 6 5 6 9 12 13 12 10 9 10 10 11 11 11 11 10 9
4 4 6 5 5 3 2 2 4 4 3 2 1 3 3 2 2 3 3 4 5 3 5 5 4 5 6 5 10 14 14 13 13 13 13 13 14 14 14 13 12 12 12
3 6 6 6 4 3 4 4 5 5 4 4 4 1 2 3 2 3 4 2 3 2 3 6 5 6 6 6 8 13 15 15 15 14 14 15 16 16 15 15 14 13 13
4 4 5 6 5 5 5 5 4 4 5 4 6 5 2 1 2 2 4 6 3 2 3 3 4 4 5 5 11 14 9 15 15 15 13 14 14 14 13 12 13 13 13
4 6 6 6 5 7 7 6 4 6 5 5 5 5 3 3 3 3 3 5 5 4 2 2 2 5 6 6 8 6 6 14 13 13 13 12 13 12 12 13 12 12 13
5 5 4 5 5 5 7 6 5 6 6 4 4 6 5 4 5 3 3 3 3 4 4 2 3 3 4 5 8 6 7 11 13 13 13 12 12 12 12 12 13 14 14
4 4 3 5 4 6 7 6 7 6 6 6 6 6 6 6 4 5 4 3 5 5 6 3 3 4 4 6 5 5 5 5 6 13 12 12 12 12 12 14 14 14 14
6 6 6 7 6 7 6 7 7 5 6 7 6 8 7 4 5 6 6 8 6 4 7 9 2 2 4 4 3 5 4 4 4 9 10 11 12 13 13 13 13 13 13
6 5 7 7 6 6 7 6 7 7 7 6 6 7 6 6 6 6 6 6 7 7 7 7 4 2 2 1 3 3 3 2 3 8 10 10 11 11 12 12 12 11 11
7 5 5 5 6 7 6 6 7 7 6 6 6 6 6 7 6 6 6 6 7 7 8 7 5 3 2 1 2 2 1 1 2 2 4 6 6 9 10 11 12 11 8
6 6 4 6 7 7 4 5 7 7 7 6 6 6 6 13 17 9 6 5 7 7 6 5 3 2 2 2 2 3 2 1 1 2 2 1 2 1 1 7 9 10 8
6 6 5 7 7 4 6 8 7 6 6 6 6 4 6 8 12 15 17 9 7 6 5 3 2 3 3 3 3 3 3 2 1 2 3 2 4 4 4 2 8 10 8
4 5 7 7 7 5 6 9 7 6 7 6 6 5 6 6 7 7 11 13 13 10 5 5 5 3 3 2 4 3 3 2 2 2 3 2 3 3 2 4 10 10 10
7 5 6 7 6 5 7 7 8 6 6 7 7 7 7 6 5 7 7 8 7 6 6 5 6 4 4 2 3 3 4 3 1 2 3 2 3 4 3 3 11 10 10
5 5 6 7 7 4 8 7 6 4 7 7 5 5 7 6 4 6 7 7 6 4 4 7 7 7 6 4 5 5 4 3 1 1 2 2 2 3 3 1 3 10 10
3 4 6 7 8 7 6 7 4 2 6 5 4 5 7 5 6 6 6 6 5 4 3 2 2 3 4 4 7 6 4 3 2 2 1 1 2 3 0 2 4 4 3
Wind_Direction
187 142 143 132 155 121 135 170 197 245 289 293 305 213 226 229 228 188 191 194 192 195 200 199 199 194 197 203 200 205 206 210 215 218 223 221 218 217 217 222 222 221 225
162 129 132 192 193 131 118 92 25 289 286 275 269 257 230 234 243 196 181 194 189 195 205 204 201 203 203 205 206 207 212 215 217 216 218 231 224 219 223 234 235 233 229
138 145 162 229 205 187 180 120 213 245 273 267 256 240 237 229 248 190 194 191 196 201 210 211 199 211 216 207 205 209 213 216 218 218 211 217 221 220 223 234 240 237 239
154 182 189 220 207 191 187 184 184 244 262 244 248 264 267 256 251 255 194 190 176 203 219 216 214 206 214 218 211 212 216 218 220 218 218 214 225 230 228 233 237 237 236
197 203 213 221 212 199 245 165 206 186 258 252 236 246 247 258 256 253 228 201 189 200 203 218 216 214 222 224 224 219 218 221 222 227 225 228 238 231 234 250 243 243 245
203 217 235 243 245 216 232 256 216 221 227 237 267 261 249 235 237 234 237 227 206 202 208 210 197 204 249 229 232 226 221 226 227 236 234 235 240 234 235 231 238 248 264
208 213 218 222 217 201 227 203 197 208 248 196 65 305 283 247 227 232 237 234 230 224 221 184 164 192 39 292 270 319 262 234 237 239 247 240 243 245 252 240 241 243 244
203 194 172 140 191 193 259 261 207 191 239 178 178 141 303 324 292 230 199 200 96 314 345 93 71 99 102 133 89 129 285 270 258 262 262 262 266 254 252 245 244 243 248
214 121 237 133 154 182 158 9 201 188 217 277 191 163 212 228 300 6 14 14 30 45 32 16 82 117 123 148 143 102 27 32 350 322 316 20 26 358 268 239 257 277 271
100 89 66 56 52 50 50 333 274 214 168 242 286 220 208 149 143 338 35 43 60 49 67 28 94 106 150 159 141 109 121 95 66 54 36 52 39 36 49 48 26 355 329
71 72 64 59 48 32 5 2 342 4 173 192 196 215 209 205 182 176 218 99 69 46 63 48 71 101 64 63 71 90 92 84 79 74 63 62 60 58 58 54 46 36 27
71 58 63 51 43 30 21 41 49 47 40 18 273 213 191 176 203 169 122 84 105 55 67 54 66 73 63 68 85 86 82 83 76 71 68 65 65 61 57 54 49 40 36
49 39 61 55 36 30 37 54 53 51 41 41 3 255 186 220 185 176 114 127 115 127 59 37 32 63 74 67 78 86 91 87 83 75 73 72 69 63 58 53 49 45 40
91 81 69 65 50 43 50 56 49 43 40 35 28 26 44 308 161 139 137 143 115 110 72 91 22 40 76 88 88 79 80 82 79 75 69 69 70 68 67 61 55 45 37
102 78 61 55 44 51 74 69 57 55 44 32 24 32 40 13 50 124 126 153 137 137 116 147 92 23 74 83 87 71 73 81 79 78 75 73 70 68 65 62 53 41 32
102 106 117 97 65 61 89 75 50 48 50 17 17 40 28 17 31 44 124 148 104 126 121 87 62 66 74 96 104 94 80 80 82 83 78 75 75 73 69 62 53 43 42
139 138 144 108 84 61 98 87 71 53 53 47 37 43 41 42 37 41 45 79 76 92 115 76 63 41 45 71 59 65 83 73 70 74 76 77 73 68 64 57 53 51 47
73 74 75 82 74 76 107 96 91 76 60 47 35 42 27 41 58 63 63 63 82 97 129 128 117 93 67 44 61 76 58 76 69 78 80 80 81 76 69 66 64 62 55
103 84 94 100 93 79 91 108 102 75 69 54 45 51 33 36 45 71 65 75 95 103 117 128 115 96 101 107 80 71 82 92 105 105 97 94 90 90 84 78 74 66 59
119 111 118 121 109 86 57 85 105 101 89 74 64 62 47 49 63 85 77 68 94 108 114 117 111 113 128 128 116 120 106 110 112 92 109 124 115 113 107 103 98 95 87
140 145 153 95 88 78 65 84 103 120 114 93 72 71 66 73 67 80 111 104 106 107 111 121 116 120 125 137 178 189 130 147 263 159 150 149 141 95 166 127 123 120 111
156 166 123 114 99 81 56 69 108 110 113 121 118 99 71 62 63 64 73 99 123 128 126 118 121 145 172 178 165 176 147 147 249 207 163 228 167 197 204 176 155 139 133
145 116 125 117 116 112 67 49 97 113 105 99 90 110 64 51 67 70 59 65 67 82 112 149 142 152 143 160 164 185 213 203 214 203 143 214 165 205 163 166 169 159 155
155 142 138 127 125 125 84 47 37 111 95 88 90 100 102 79 61 96 83 71 66 67 81 94 111 127 123 136 140 173 199 197 62 128 137 192 174 198 176 187 188 175 172
157 157 146 142 138 149 113 72 64 93 108 98 84 98 108 91 36 104 106 103 86 68 52 102 118 128 124 105 119 81 27 67 284 89 2 161 218 161 160 209 191 197 192
176 159 149 152 152 152 135 108 92 114 127 125 107 85 84 116 73 79 135 136 133 191 150 92 54 25 33 30 64 96 131 92 104 66 273 97 40 132 272 217 176 196 203